Location: Caltech
(34.1382°N, 118.1253°W)
Time: 14:31:40
(UTC-07:00)

Iridium 12 - Visible Passes

Search period start: 24 April 2014 00:00
Search period end: 04 May 2014 00:00
Orbit: 776 x 779 km, 86.4° (Epoch: 24 April)

Date Brightness Start Highest point End Pass type
(mag) Time Alt. Az. Time Alt. Az. Time Alt. Az.
24 Apr 8.9 04:24:49 10° ENE 04:25:51 11° ENE 04:26:52 10° E visible
25 Apr 6.2 05:28:22 10° N 05:33:31 61° E 05:38:38 10° SSE visible
26 Apr 7.5 04:55:17 10° NNE 04:59:53 31° E 05:04:28 10° SE visible
27 Apr 8.4 04:22:55 10° NE 04:26:08 16° ENE 04:29:20 10° ESE visible
28 Apr 5.6 05:28:23 10° N 05:33:37 89° W 05:38:48 10° S visible
29 Apr 6.7 04:55:03 10° NNE 05:00:03 46° E 05:05:02 10° SSE visible
30 Apr 7.8 04:22:11 10° NNE 04:26:22 24° E 04:30:32 10° SE visible
01 May 8.5 03:50:26 10° NE 03:52:34 12° ENE 03:54:41 10° E visible
01 May 5.6 05:28:32 10° N 05:33:39 60° W 05:38:45 10° SSW visible
02 May 5.8 04:54:58 10° N 05:00:10 70° E 05:05:20 10° S visible
03 May 7.1 04:21:47 10° NNE 04:26:33 36° E 04:31:18 10° SSE visible
